Location: Newark
(50.4348°N, 30.5552°E)
Time: 20:17:51
(UTC+00:00)

Explorer 7 - All Passes

Search period start: 26 January 2020 00:00
Search period end: 05 February 2020 00:00
Orbit: 485 x 679 km, 50.3° (Epoch: 26 January)

Date Brightness Start Highest point End Pass type
(mag) Time Alt. Az. Time Alt. Az. Time Alt. Az.
26 Jan - 00:22:20 10° W 00:26:06 74° SSW 00:30:00 10° ESE night (unlit)
26 Jan - 02:02:57 10° W 02:06:16 28° SSW 02:09:42 10° SSE visible
26 Jan - 19:28:04 10° S 19:30:20 15° SE 19:32:36 10° ESE night (unlit)
26 Jan - 21:06:32 10° SW 21:10:13 52° SSE 21:13:53 10° E night (unlit)
26 Jan - 22:46:49 10° W 22:50:35 90° WSW 22:54:25 10° E night (unlit)
27 Jan - 00:27:17 10° W 00:31:00 60° SSW 00:34:52 10° ESE night (unlit)
27 Jan - 02:08:11 10° W 02:11:01 20° SW 02:13:55 10° S night (unlit)
27 Jan - 19:32:02 10° SSW 19:35:02 22° SE 19:38:01 10° E night (unlit)
27 Jan - 21:11:21 10° WSW 21:15:05 67° SSE 21:18:50 10° E night (unlit)
27 Jan - 22:51:46 10° W 22:55:31 88° S 22:59:21 10° E night (unlit)
28 Jan - 00:32:13 10° W 00:35:52 46° SSW 00:39:37 10° SE night (unlit)
28 Jan - 02:13:48 10° WSW 02:15:42 13° SW 02:17:38 10° SSW night (unlit)
28 Jan - 19:36:24 10° SSW 19:39:48 31° SSE 19:43:10 10° E night (unlit)
28 Jan - 21:16:13 10° WSW 21:20:00 79° S 21:23:46 10° E night (unlit)
28 Jan - 22:56:42 10° W 23:00:28 81° S 23:04:17 10° ESE night (unlit)
29 Jan - 00:37:14 10° W 00:40:41 34° SSW 00:44:14 10° SE night (unlit)
29 Jan - 18:03:24 10° SSE 18:04:50 12° SE 18:06:16 10° ESE night (unlit)
29 Jan - 19:40:59 10° SW 19:44:37 43° SSE 19:48:12 10° E night (unlit)
29 Jan - 21:21:09 10° W 21:24:56 88° S 21:28:43 10° E night (unlit)
29 Jan - 23:01:38 10° W 23:05:23 69° SSW 23:09:11 10° ESE night (unlit)
30 Jan - 00:42:21 10° W 00:45:28 24° SW 00:48:39 10° SSE night (unlit)
30 Jan - 18:06:53 10° S 18:09:31 18° SE 18:12:07 10° E night (unlit)
30 Jan - 19:45:43 10° WSW 19:49:28 57° SSE 19:53:10 10° E night (unlit)
30 Jan - 21:26:05 10° W 21:29:52 90° NE 21:33:39 10° E night (unlit)
30 Jan - 23:06:35 10° W 23:10:16 55° SSW 23:14:01 10° ESE night (unlit)
31 Jan - 00:47:41 10° W 00:50:11 17° SW 00:52:44 10° S night (unlit)
31 Jan - 18:11:01 10° SSW 18:14:14 25° SSE 18:17:25 10° E visible
31 Jan - 19:50:33 10° WSW 19:54:21 71° SSE 19:58:06 10° E night (unlit)
31 Jan - 21:31:02 10° W 21:34:49 87° S 21:38:36 10° E night (unlit)
31 Jan - 23:11:33 10° W 23:15:07 41° SSW 23:18:43 10° SE night (unlit)
01 Feb - 00:53:43 10° WSW 00:54:51 11° SW 00:56:00 10° SSW night (unlit)
01 Feb - 18:15:28 10° SW 18:19:02 35° SSE 18:22:31 10° E visible
01 Feb - 19:55:27 10° WSW 19:59:16 83° S 20:03:02 10° E night (unlit)
01 Feb - 21:35:58 10° W 21:39:44 78° SSW 21:43:31 10° ESE night (unlit)
01 Feb - 23:16:35 10° W 23:19:54 30° SSW 23:23:17 10° SSE night (unlit)
02 Feb - 16:41:54 10° S 16:44:00 14° SE 16:46:03 10° ESE visible
02 Feb - 18:20:06 10° SW 18:23:51 48° SSE 18:27:30 10° E visible
02 Feb - 20:00:23 10° W 20:04:13 89° S 20:07:59 10° E night (unlit)
02 Feb - 21:40:54 10° W 21:44:38 65° SSW 21:48:23 10° ESE night (unlit)
02 Feb - 23:21:45 10° W 23:24:40 21° SW 23:27:36 10° SSE night (unlit)
03 Feb - 16:45:43 10° SSW 16:48:42 20° SE 16:51:36 10° E visible
03 Feb - 18:24:52 10° WSW 18:28:43 62° SSE 18:32:27 10° E visible
03 Feb - 20:05:20 10° W 20:09:09 90° SSW 20:12:55 10° E night (unlit)
03 Feb - 21:45:51 10° W 21:49:31 50° SSW 21:53:10 10° SE night (unlit)
03 Feb - 23:27:15 10° WSW 23:29:22 15° SW 23:31:30 10° S night (unlit)
04 Feb - 16:49:58 10° SSW 16:53:27 29° SSE 16:56:48 10° E visible
04 Feb - 18:29:43 10° WSW 18:33:37 76° SSE 18:37:23 10° E visible
04 Feb - 20:10:16 10° W 20:14:05 85° S 20:17:50 10° E night (unlit)
04 Feb - 21:50:51 10° W 21:54:20 37° SSW 21:57:50 10° SE night (unlit)
